User: anonymous   Login
Location: Unspecified
(0.0000°N, 0.0000°E)
Time: 12:23:00
(UTC+00:00)
Language:

USA 283 - Orbit

View from above orbital plane
View from above orbital plane
View from above satellite
View from above satellite

Ground track
Ground track

The orbit data is extracted from the following two-line orbital elements,

1 43339U 18036A   22268.59771692 -.00000316  00000-0  00000+0 0  9996
2 43339   0.0030 288.1000 0001103 325.3473 100.2311  1.00272234  5080
Epoch (UTC): 25 September 2022 14:20:42
Eccentricity: 0.0001103
inclination: 0.0030°
perigee height: 35781 km
apogee height: 35791 km
right ascension of ascending node: 288.1000°
argument of perigee: 325.3473°
revolutions per day: 1.00272234
mean anomaly at epoch: 100.2311°
orbit number at epoch: 508

The dashed part of the orbit path shows where the satellite is in the earth's shadow,  

DLR